Regional Weather Roundup
Issued by NWS

Home | Current Version | Previous Version | Text Only | Print | Product List | Glossary On
Versions: 1 2 3 4 5 6 7 8 9 10 11 12 13 14 15 16 17 18 19 20 21 22 23 24 25 26 27 28 29 30 31 32 33 34 35 36 37 38 39 40 41 42 43 44 45 46 47 48 49 50
000
ASUS46 KSTO 191309
RWRCA

NORTHERN AND CENTRAL CA REGIONAL WEATHER ROUNDUP
NATIONAL WEATHER SERVICE SACRAMENTO CA
500 AM PST FRI DEC 19 2014

NOTE: FAIR INDICATES FEW OR NO CLOUDS BELOW 12,000 FEET WITH NO
SIGNIFICANT WEATHER AND/OR OBSTRUCTIONS TO VISIBILITY.

CAZ001-003-191400-
NORTHWEST AREA

CITY           SKY/WX    TMP DP  RH WIND       PRES   REMARKS
CRESCENT CITY  CLOUDY    51  49  92 SE15      30.00F
ARCATA         NOT AVBL
SHELTER COVE   NOT AVBL
UKIAH          LGT RAIN  52  50  93 S8        30.04S FOG
$$

CAZ006-505>513-191400-
BAY AREA

CITY           SKY/WX    TMP DP  RH WIND       PRES   REMARKS
SANTA ROSA     LGT RAIN  54  53  97 SE14      30.06F FOG
SAN RAFAEL     N/A       55  MM  MM MISG
NAPA           CLOUDY    53  52  96 SE8       30.11F
CONCORD        CLOUDY    56  49  77 S3        30.13F
OAKLAND CITY   N/A       56  MM  MM MISG
OAKLAND        CLOUDY    56  51  84 S14       30.13F
SAN FRAN CITY  N/A       54  MM  97 MISG
SAN FRAN ARPT  CLOUDY    55  54  96 SE6       30.12F
LIVERMORE      CLOUDY    57  48  72 CALM      30.13F
HAYWARD        CLOUDY    58  50  75 S13       30.13F
REDWOOD CITY   N/A       MM  MM  MM MISG
MOFFETT ARPT   CLOUDY    56  49  77 E9        30.15F
SAN JOSE ARPT  CLOUDY    54  48  80 E12       30.15S
$$
CAZ034-037-514>518-191400-
CENTRAL COAST

CITY           SKY/WX    TMP DP  RH WIND       PRES   REMARKS
WATSONVILLE    CLOUDY    54  51  90 CALM      30.18F
SALINAS        CLOUDY    52  47  83 E14       30.17S
MONTEREY       MOCLDY    51  46  83 E3        30.17F
PT PIEDRAS BLS NOT AVBL
SAN LUIS OBISP CLEAR     50  49  96 CALM      30.20F
SANTA MARIA    CLEAR     51  46  83 SE8       30.20F
$$
CAZ015-016-191400-
NORTHERN SACRAMENTO VALLEY

CITY           SKY/WX    TMP DP  RH WIND       PRES   REMARKS
REDDING        RAIN      51  50  96 S18       30.05R FOG
RED BLUFF      HVY RAIN  51  49  92 S22G29    30.08R FOG
OROVILLE       LGT RAIN  52  47  83 SE16      30.12F
$$
CAZ016>018-191400-
SOUTHERN SACRAMENTO VALLEY

CITY           SKY/WX    TMP DP  RH WIND       PRES   REMARKS
AUBURN         CLOUDY    50  41  71 SE9       30.14F
BEALE AFB      CLOUDY    54  46  76 SE12      30.13S
LINCOLN        CLOUDY    54  45  71 SE13      30.13S
MARYSVILLE     CLOUDY    53  48  83 SE12      30.13S
SAC INTL ARPT  CLOUDY    54  48  80 S12       30.13S
MATHER AIRPORT MOCLDY    54  52  94 SE10      30.15S
DOWNTOWN SAC   N/A       54  MM  MM MISG
SAC EXEC ARPT  LGT RAIN  54  47  77 SE8       30.15S
VACAVILLE      CLOUDY    52  50  93 S5        30.14F FOG
TRAVIS AFB     CLOUDY    51  49  92 SE5       30.12F
$$
CAZ019>021-191400-
SAN JOAQUIN VALLEY

CITY           SKY/WX    TMP DP  RH WIND       PRES   REMARKS
STOCKTON       CLOUDY    51  47  86 SE12      30.15R
MODESTO        CLOUDY    50  45  83 SE7       30.18R
MERCED         CLEAR     45  41  86 E5        30.18F
LEMOORE        CLEAR     43  42  97 E8        30.19F
FRESNO         PTCLDY    46  42  86 E8        30.20F
HANFORD        CLEAR     42  40  92 E6        30.21F
PORTERVILLE    PTCLDY    43  39  87 E3        30.24R
BAKERSFIELD    PTCLDY    45  42  89 N6        30.22R
$$
CAZ011-012-071-191400-
NORTHERN MOUNTAINS

CITY           SKY/WX    TMP DP  RH WIND       PRES   REMARKS
YREKA          LGT RAIN  41  39  93 SE6       30.00F
MOUNT SHASTA   LGT RAIN  41  38  89 VRB5      30.01S
ALTURAS        CLOUDY    39  32  76 S14       30.01S WCI  31
$$
CAZ011-012-071-191400-
SIERRA NEVADA MTNS

CITY           SKY/WX    TMP DP  RH WIND       PRES   REMARKS
BLUE CANYON    LGT RAIN  37  27  67 S15       30.15S WCI  28
TRUCKEE        CLOUDY    36  16  44 S21       30.10S WCI  24
TAHOE VLY ARPT MOCLDY    39   1  20 S9        30.09F WCI  33
MAMMOTH LAKES  FAIR      18  18 100 CALM      30.17F
$$




USA.gov is the U.S. government's official web portal to all federal, state and local government web resources and services.